EHI
0 0 0 0 0 0 0 0 0 0 0 0 0 1 1 1 1 2 5 12 18 19 22 31 37 37 30 23 17 13 11 11 11 12 12 7 5 7 8 6 3 2 1 1 2 1 0 1 1
0 0 0 0 0 0 0 0 0 0 0 1 1 1 1 2 3 4 6 11 15 16 19 28 37 38 32 24 17 13 12 12 13 13 12 8 4 4 5 4 2 1 1 2 2 1 0 0 1
0 0 0 0 0 0 0 1 1 1 1 2 3 2 2 3 5 6 9 14 15 14 17 27 39 41 35 26 18 14 14 14 14 13 11 7 4 3 2 2 2 2 2 2 1 1 0 0 1
0 0 0 0 0 1 1 1 2 2 2 4 6 5 4 5 10 13 15 19 19 16 17 27 39 41 36 28 20 15 15 15 14 12 10 8 6 4 3 2 2 2 2 1 0 0 0 1 3
0 0 0 0 1 2 2 3 4 4 4 5 8 7 5 9 18 22 22 22 22 19 17 24 35 37 33 27 20 17 17 17 15 12 9 8 6 5 5 4 2 2 1 0 0 0 0 2 4
0 0 0 0 1 2 3 4 5 5 5 7 9 8 6 12 22 26 23 22 24 22 17 20 27 30 28 23 18 16 17 17 15 12 8 6 5 4 4 4 4 4 2 1 0 0 1 3 6
0 0 0 0 0 1 3 5 5 4 5 6 9 8 6 11 20 24 22 23 25 23 18 15 17 19 20 18 16 16 16 14 13 11 9 6 4 3 3 4 4 4 3 2 1 1 3 6 8
0 0 0 0 0 0 2 4 4 3 4 6 8 8 8 13 21 24 24 24 24 22 16 11 10 11 12 12 14 16 15 12 9 9 9 7 4 2 3 3 3 3 3 3 2 2 4 7 8
0 0 0 1 1 1 2 3 3 2 3 5 7 9 12 21 27 30 30 26 21 18 14 11 9 9 9 9 11 13 13 10 7 7 8 6 2 1 1 2 2 2 2 2 2 3 4 4 4
0 0 0 1 2 3 2 3 2 1 2 6 9 11 17 25 32 37 35 28 20 15 13 11 10 10 9 9 10 8 7 7 7 7 6 3 1 0 0 0 1 1 1 1 2 2 2 2 1
0 0 0 1 2 3 3 2 2 1 3 7 11 14 18 24 32 37 33 27 21 15 11 10 10 9 8 9 9 6 4 4 5 6 5 2 0 0 0 0 0 1 1 1 1 1 1 0 0
0 0 1 1 2 2 2 1 1 2 5 9 13 15 17 21 27 30 28 25 20 14 10 8 8 8 8 8 7 5 4 3 4 4 4 3 1 0 0 0 1 1 1 1 1 0 0 0 0
0 0 1 2 2 1 1 1 2 3 9 14 16 17 18 21 25 27 27 25 21 15 11 9 8 9 8 7 7 5 4 4 4 3 3 3 1 0 0 1 1 2 2 2 1 0 1 1 1
0 0 1 2 1 0 1 1 3 7 12 19 21 20 21 24 27 30 29 26 22 18 14 12 11 11 11 10 8 6 5 5 5 3 2 2 2 1 1 2 2 1 2 3 2 2 3 3 3
0 0 0 0 0 0 1 2 4 9 15 21 24 25 26 28 30 33 31 26 23 19 17 15 13 13 14 14 11 8 7 7 6 4 2 3 3 2 2 2 2 1 3 4 4 4 5 4 3
0 0 0 0 0 0 1 3 5 11 18 22 25 28 29 29 31 35 33 28 23 21 20 19 16 15 16 15 13 11 10 8 7 5 5 6 6 5 4 4 3 3 4 5 4 3 3 3 2
0 0 0 0 0 1 1 3 5 11 18 22 24 28 29 29 32 36 37 31 25 23 23 22 20 19 17 16 15 15 13 11 8 7 8 9 9 8 7 6 5 5 5 5 3 2 1 1 0
0 0 0 0 1 2 3 3 5 10 16 19 22 26 28 29 33 36 36 33 29 26 25 24 23 23 21 19 19 18 16 12 9 9 10 10 10 9 8 6 6 5 4 4 3 2 0 0 0
0 0 0 1 2 3 4 5 6 9 14 17 20 24 27 29 31 33 33 33 32 29 27 26 26 26 25 24 22 20 19 16 12 11 10 10 10 10 8 5 4 4 3 3 2 1 0 0 0
0 0 0 2 3 4 5 8 8 8 12 17 19 22 25 28 29 30 32 33 32 29 27 27 28 28 29 28 25 23 23 21 16 12 12 12 12 11 8 6 5 5 4 3 2 1 1 0 0
0 0 0 1 2 4 6 8 8 8 11 16 18 21 25 28 28 30 34 35 31 27 26 27 28 29 29 29 28 27 27 24 19 15 15 15 15 14 12 10 9 8 7 5 3 2 2 1 1
0 0 0 0 1 2 5 7 7 8 11 14 16 18 23 27 28 30 34 35 31 27 27 28 28 28 28 28 28 26 25 22 18 17 18 18 17 17 17 15 13 11 9 6 3 1 2 2 2
0 0 0 0 0 1 2 3 5 7 10 12 12 17 24 28 30 31 33 33 31 29 29 29 28 28 27 25 23 21 19 17 16 16 17 17 16 18 18 17 15 13 10 6 2 0 1 2 3
0 0 0 0 0 0 0 1 3 7 9 10 10 17 25 30 32 32 30 31 31 28 27 28 29 27 26 23 19 16 15 14 15 16 16 14 14 15 17 17 16 15 11 7 4 2 2 2 4
0 0 0 0 0 0 0 0 2 5 8 8 10 17 24 28 30 30 26 25 26 25 25 27 28 26 24 21 17 15 13 13 14 15 15 14 13 14 15 15 15 14 12 10 8 5 4 5 6
0 0 0 0 0 0 0 0 1 3 5 7 10 15 21 25 26 24 20 18 20 21 22 24 26 26 24 22 18 15 13 11 12 13 14 13 13 15 14 12 11 12 12 11 10 8 6 7 8
0 0 0 0 0 0 0 0 1 2 5 9 11 14 19 23 24 19 15 14 16 18 19 22 24 25 25 24 21 16 13 11 10 11 11 12 13 15 14 10 9 10 10 9 9 8 8 9 9
0 0 0 0 0 0 0 0 1 3 5 9 12 14 19 22 21 17 13 13 15 16 19 22 23 23 24 25 23 19 15 13 11 10 10 10 10 13 14 11 9 9 8 7 7 8 9 9 10
0 0 0 0 0 0 0 0 1 3 5 8 11 13 17 19 18 15 13 13 14 15 17 20 21 21 21 24 24 20 16 13 10 9 9 8 8 10 12 12 11 9 7 6 6 7 7 9 9
0 0 0 0 0 0 0 0 1 3 5 7 10 12 14 15 15 14 13 14 13 13 14 18 20 19 19 22 23 20 15 12 10 8 7 6 6 8 11 13 11 9 7 6 6 6 7 8 9
Wind_Speed
4 3 2 2 4 4 2 4 2 1 3 3 5 8 8 6 5 5 4 13 15 13 10 13 15 15 15 14 14 13 12 12 12 12 12 12 12 12 12 11 11 11 11 12 12 12 12 11 11
3 3 1 3 5 2 4 3 1 2 5 5 6 8 8 6 7 11 8 13 16 14 10 12 15 15 15 15 14 13 13 13 13 13 12 12 12 11 11 11 10 10 11 11 12 11 10 10 9
2 2 3 4 2 3 4 4 3 2 3 4 3 5 5 7 9 9 10 18 14 12 9 12 17 16 15 15 14 13 13 13 13 12 12 11 11 11 10 10 10 10 10 10 11 10 9 8 8
1 3 3 3 3 6 6 6 3 1 2 3 6 6 4 5 8 11 18 18 15 11 10 12 17 17 16 15 14 14 13 12 12 12 11 11 10 10 10 10 10 9 9 9 9 8 8 7 7
3 4 3 2 5 5 5 6 4 1 1 4 7 6 4 4 14 20 19 17 16 12 9 11 16 17 16 15 15 14 13 12 11 11 10 10 9 9 9 9 9 9 9 8 8 7 7 6 6
3 4 2 3 5 5 4 3 2 3 4 5 7 7 3 6 15 18 17 15 14 14 10 10 16 17 16 15 15 14 12 11 11 10 9 9 8 8 8 8 8 8 8 7 7 6 6 5 5
3 2 3 4 4 5 5 2 2 3 4 5 7 7 4 6 11 14 14 13 12 12 10 8 9 11 14 15 14 13 12 11 10 9 9 8 8 8 8 7 7 7 6 6 5 5 5 4 4
5 3 2 3 4 6 4 2 1 4 4 6 6 8 7 8 12 14 13 11 11 9 9 8 7 7 7 8 13 13 12 11 10 9 9 8 8 7 7 6 6 6 5 5 4 3 4 4 3
3 3 4 5 4 6 4 3 4 0 4 3 3 6 10 15 16 15 12 9 9 9 7 7 7 6 6 6 9 10 11 10 9 7 8 6 3 3 3 5 6 6 5 4 3 3 2 3 2
4 3 8 6 5 5 7 4 4 0 2 3 4 6 13 16 16 16 15 12 10 10 8 7 8 7 6 6 5 4 4 4 4 3 3 2 2 2 3 4 5 5 4 3 3 3 2 1 1
4 7 8 8 8 5 6 6 3 4 2 5 10 12 13 15 13 14 13 12 12 11 10 8 8 7 6 4 5 3 2 2 2 3 3 2 2 1 1 1 2 2 2 1 2 1 1 1 1
3 8 7 7 7 5 5 5 3 2 5 9 12 15 13 13 13 14 13 12 11 11 10 9 8 7 6 5 4 4 3 3 2 3 3 3 2 2 2 1 1 1 1 1 1 1 1 1 1
5 6 7 7 7 6 5 4 2 2 3 8 11 13 13 12 12 11 11 11 11 10 10 9 9 8 7 6 4 5 4 4 3 3 3 4 3 2 2 1 1 2 1 1 1 1 1 1 1
6 6 7 6 7 5 3 4 0 3 5 8 11 11 11 12 12 11 11 10 10 9 9 9 8 8 7 6 4 4 4 3 3 3 4 4 3 3 2 2 1 1 2 2 2 2 2 1 1
4 5 8 6 5 4 0 4 3 5 6 8 9 10 10 10 12 12 12 11 10 9 9 9 9 7 7 6 5 4 3 3 3 3 3 4 3 3 3 2 2 1 1 2 1 1 1 1 1
4 3 5 8 3 4 3 6 6 5 8 7 9 9 9 8 10 10 11 10 9 8 8 8 8 7 6 5 5 4 3 3 3 3 3 4 4 4 3 2 2 1 1 1 1 1 1 1 1
3 3 6 8 5 3 3 5 6 5 8 9 8 8 9 8 8 8 9 9 9 9 9 7 6 7 6 5 4 4 4 3 3 3 2 3 4 4 3 2 2 2 1 1 1 1 1 1 1
5 4 5 7 6 1 2 5 5 5 7 8 8 8 8 9 8 9 9 9 9 8 8 7 5 5 5 4 3 3 3 2 2 2 2 3 3 3 3 2 2 2 2 1 1 1 1 1 1
6 6 8 10 7 2 3 4 5 3 5 7 7 9 8 7 7 8 9 9 9 7 7 6 6 5 4 4 4 3 3 2 2 2 3 3 3 3 3 2 2 2 2 2 2 1 1 0 0
7 8 9 9 5 2 2 4 3 3 5 7 9 9 9 7 6 7 8 8 7 8 7 6 5 5 5 4 3 3 3 2 2 1 2 3 3 3 4 3 2 2 2 1 1 2 1 0 1
8 7 7 6 5 3 1 3 3 2 2 4 6 8 9 9 9 9 9 8 8 8 7 7 6 5 4 4 3 3 2 2 1 1 1 2 3 3 2 3 2 2 3 2 2 2 3 1 0
9 8 6 5 2 4 2 2 5 2 1 3 5 6 7 8 8 8 9 9 9 7 6 6 5 5 3 4 4 5 3 2 2 2 1 1 2 2 2 2 2 2 2 2 2 2 2 3 1
8 7 5 5 3 2 2 2 5 1 2 3 5 7 8 8 9 9 9 9 8 7 6 6 6 6 4 4 4 4 3 2 1 1 2 1 1 1 2 3 2 2 1 2 2 1 2 2 2
5 2 3 1 2 3 5 4 4 4 5 5 5 7 8 8 8 7 6 7 6 5 6 6 6 5 5 5 5 4 4 3 3 2 2 1 0 0 1 2 2 2 2 2 2 2 2 2 2
1 4 3 4 2 6 3 3 5 5 5 8 10 8 7 8 8 7 6 6 6 6 7 6 6 5 4 5 4 4 4 4 4 3 3 2 1 1 2 2 2 2 2 2 2 1 1 2 2
4 8 7 5 5 5 1 3 3 2 2 4 8 9 9 8 7 7 6 6 7 7 7 6 6 5 5 5 4 3 3 3 2 3 3 3 3 3 2 3 2 2 2 2 2 1 2 1 1
3 4 8 6 2 1 3 2 2 2 3 4 5 7 8 8 8 7 6 5 5 7 6 7 7 5 5 5 4 3 3 3 3 2 3 2 2 2 3 3 3 3 3 3 2 2 2 1 1
5 5 4 5 4 3 3 3 4 2 1 2 3 5 6 6 7 6 5 5 5 5 5 5 5 5 4 4 4 3 3 3 3 3 3 3 3 2 2 3 3 3 3 3 2 2 2 2 2
1 1 3 3 5 6 4 5 4 7 6 5 4 6 7 7 7 6 5 5 5 5 5 4 4 3 3 3 3 3 3 2 2 3 3 3 3 3 3 3 3 3 3 3 3 3 2 2 2
4 3 5 4 3 4 4 5 1 4 4 5 6 7 7 7 6 6 6 5 5 5 4 3 3 3 4 3 3 3 2 2 2 2 3 3 3 3 4 4 4 4 4 3 4 4 3 3 3
Wind_Direction
173 178 160 75 50 45 290 246 214 299 32 53 81 95 95 88 122 145 143 140 140 145 147 140 134 130 126 123 119 115 112 108 106 109 109 108 106 107 108 107 107 109 110 109 110 114 117 119 120
186 180 76 55 71 36 286 257 241 230 140 108 78 90 86 75 95 118 128 143 143 143 144 141 137 133 129 127 124 120 116 112 108 109 110 110 109 109 111 111 111 112 114 115 115 116 119 120 121
219 177 87 68 85 192 251 263 215 204 146 117 92 64 86 116 123 136 147 145 142 141 142 143 139 136 133 130 128 125 122 118 115 114 113 112 112 111 114 114 114 116 117 118 120 120 121 122 122
113 57 53 76 239 236 223 250 249 121 67 91 100 70 62 114 135 137 141 145 141 142 144 145 141 139 136 134 131 128 127 125 121 119 118 117 116 116 116 117 118 120 120 121 123 124 124 122 120
74 77 47 322 260 262 250 245 239 147 100 97 96 90 57 45 118 131 142 146 143 144 146 147 144 142 141 138 136 133 132 130 127 126 125 122 121 121 121 121 121 123 124 125 127 128 130 128 129
55 73 85 265 270 283 276 250 187 116 110 108 101 104 90 117 127 140 144 145 144 145 145 145 147 146 145 143 141 140 138 136 135 133 132 130 129 127 126 127 126 125 127 128 132 135 135 133 133
122 109 205 249 278 288 275 283 132 139 160 164 134 109 129 141 140 139 139 139 138 141 142 144 148 149 150 148 146 145 143 142 141 140 138 136 137 137 135 134 134 132 130 130 135 143 140 136 137
152 114 275 261 273 281 283 320 247 158 156 148 129 134 162 166 144 133 129 130 133 138 143 146 145 146 150 150 151 151 149 149 149 149 148 147 146 144 143 142 146 145 142 137 135 146 150 146 143
124 93 251 246 249 273 297 327 319 18 124 124 124 150 154 141 136 130 128 126 136 143 149 151 148 145 146 152 158 155 155 155 155 158 159 153 148 148 154 160 160 159 156 151 151 148 149 148 143
122 180 241 235 232 268 291 285 270 22 88 80 81 101 127 136 141 140 144 149 153 156 161 158 156 155 156 160 148 151 153 153 152 153 153 145 152 173 172 174 173 166 163 164 167 172 167 139 145
183 211 248 263 257 255 279 286 272 154 161 168 153 145 141 140 144 146 150 153 158 161 164 163 162 159 160 152 148 155 154 151 154 163 156 144 144 152 161 158 170 167 168 168 175 187 188 178 177
236 250 247 261 267 265 269 274 293 218 196 168 155 151 147 147 151 154 154 154 152 156 162 163 160 159 161 153 159 162 159 159 165 171 160 146 140 146 161 166 167 161 169 172 188 205 197 200 184
267 267 261 264 274 259 277 269 259 266 159 146 143 147 150 154 155 155 151 150 149 156 158 160 159 160 160 155 167 166 168 170 174 170 169 154 153 163 174 173 176 182 179 179 197 215 214 198 183
254 268 272 266 264 260 251 277 307 246 153 141 145 151 157 155 152 147 146 151 157 161 161 155 155 160 157 159 164 162 168 172 169 169 170 162 161 164 163 175 189 196 197 191 196 206 192 185 167
279 301 302 278 257 249 193 314 259 201 148 144 152 150 151 155 150 153 157 158 161 160 157 157 155 155 156 158 162 157 162 161 163 170 169 166 164 161 157 169 190 198 184 170 167 160 132 157 149
333 324 291 283 274 258 138 250 252 192 146 156 157 155 147 150 152 151 151 152 153 149 152 158 153 150 156 159 159 154 156 159 165 167 166 167 168 163 151 161 190 183 149 146 147 126 114 130 160
343 274 268 288 280 233 166 228 236 194 156 161 162 159 152 141 138 141 145 149 146 148 147 148 146 152 160 157 155 152 154 160 167 166 168 176 174 165 152 165 184 153 131 143 169 133 143 158 201
245 257 272 269 279 264 225 235 229 210 170 162 154 153 149 148 151 149 147 146 143 142 143 144 144 153 156 146 135 129 137 156 161 164 171 172 175 163 153 163 172 146 131 135 139 136 119 165 191
229 252 268 267 268 271 245 240 243 221 168 164 161 157 149 153 148 142 144 140 135 133 140 142 145 153 150 150 156 152 161 167 165 166 162 164 172 169 166 172 166 152 156 183 169 148 96 350 100
240 257 270 282 285 268 245 264 254 209 177 171 166 159 150 141 140 141 139 136 138 144 145 144 151 154 160 163 168 161 153 164 178 165 153 166 171 171 173 169 175 173 167 170 167 150 151 259 112
248 235 248 263 304 337 90 322 318 305 110 137 152 147 144 151 159 152 144 148 150 151 153 153 153 148 153 145 124 108 91 89 92 88 155 192 177 167 163 163 162 173 169 185 194 172 161 176 270
253 248 241 253 264 271 163 250 277 242 151 149 149 143 146 148 151 151 151 154 157 160 156 147 139 130 128 127 137 140 143 155 184 176 171 191 176 162 158 156 158 168 169 181 200 177 165 153 186
237 250 244 243 223 266 275 158 271 218 189 217 171 157 157 153 156 155 155 155 156 155 152 144 132 131 136 137 142 142 140 149 131 117 120 135 156 161 159 153 149 157 168 172 167 156 157 162 169
230 299 323 340 85 266 245 171 249 223 196 194 173 161 156 151 151 150 145 136 134 139 138 136 135 137 146 150 150 148 153 146 130 144 162 176 187 192 175 158 161 167 174 178 172 163 158 172 169
161 103 14 345 353 251 243 168 232 238 195 175 163 158 162 158 149 142 143 148 147 147 144 142 144 149 157 155 157 163 172 166 163 170 184 185 186 205 213 180 181 184 192 190 169 161 173 174 173
214 151 167 199 224 261 283 200 246 249 191 157 149 151 155 152 149 150 157 161 163 158 153 152 157 160 164 161 165 169 170 165 175 174 179 196 201 205 203 194 199 200 190 188 175 183 199 170 192
202 197 179 158 210 234 254 230 326 31 66 106 120 134 148 150 150 151 151 149 157 157 160 160 160 159 166 166 167 174 166 170 182 187 186 192 207 203 197 193 201 208 198 186 174 190 205 187 202
176 176 107 124 172 233 253 217 217 208 196 132 125 136 145 147 145 144 144 139 142 153 151 152 155 165 164 163 167 166 177 180 186 185 191 192 204 208 195 194 201 201 198 196 182 190 199 191 217
26 79 118 139 167 169 218 255 218 187 181 165 144 136 139 145 145 143 143 136 124 119 126 140 152 148 155 166 164 165 181 186 181 191 206 202 202 199 198 202 204 199 192 191 183 193 194 200 226
165 171 148 157 230 172 172 257 279 168 171 157 148 146 145 145 143 138 132 123 113 111 113 123 139 156 171 173 166 175 176 175 194 211 224 214 205 203 200 198 202 200 195 191 191 204 203 203 215